Weather History for LZIB - July, 2013

Change the Weather History Date:

Friday, July 5, 2013

  Actual Average Record
Temperature  
Mean Temperature 74 °F -  
Max Temperature 83 °F 77 °F 95 °F (2012)
Min Temperature 66 °F 58 °F 51 °F (2001)
Cooling Degree Days 10    
Growing Degree Days 24 (Base 50)    
Moisture  
Dew Point 62 °F    
Average Humidity 61    
Maximum Humidity 78    
Minimum Humidity 39    
Precipitation  
Precipitation 0.00 in - - ()
Sea Level Pressure  
Sea Level Pressure 30.16 in    
Wind  
Wind Speed 9 mph ()    
Max Wind Speed 21 mph    
Max Gust Speed -    
Visibility 10.3 miles    
Events      
Averages and records for this station are not official NWS values.
T = Trace of Precipitation, MM = Missing Value Source: Averaged Metar Reports

Daily Weather History Graph

Daily Weather History Graph

Search for Another Location

Airport or City:

Trip Planner

Search our weather history database for the weather conditions in past years. The results will help you decide how hot, cold, wet, or windy it might be!

Date:

Astronomy

Jul. 05, 2013 Rise Set
Actual Time 4:57 AM CEST 8:53 PM CEST
Civil Twilight 4:16 AM CEST 9:34 PM CEST
Nautical Twilight 3:20 AM CEST 10:30 PM CEST
Astronomical Twilight 1:50 AM CEST 11:59 PM CEST
Moon 2:49 AM CEST (7/5) 6:29 PM CEST (7/5)
Length of Visible Light 17h 17m
Length of Day
15h 55m
Waning Crescent, 7% of the Moon is Illuminated
Jul 5
Waning Crescent
Jul 8
New
Jul 16
First Quarter
Jul 22
Full
Jul 29
Last Quarter

Hourly Weather History & Observations

Time (CEST) Temp. Heat Index Dew Point Humidity Pressure Visibility Wind Dir Wind Speed Gust Speed Precip Events Conditions
12:00 AM 73 °F - 62 °F 59% 30.12 in 19 mi North 6.7 mph - -   Clear
12:00 AM 73.4 °F - 60.8 °F 65% 30.12 in - North 8.1 mph - N/A   Clear
12:30 AM 71.6 °F - 60.8 °F 69% 30.12 in - NE 3.5 mph - N/A   Clear
1:00 AM 71 °F - 61 °F 62% 30.13 in 19 mi 4.5 mph - -   Clear
1:00 AM 73.4 °F - 60.8 °F 65% 30.12 in - NNW 6.9 mph - N/A   Clear
1:30 AM 71.6 °F - 60.8 °F 69% 30.12 in - North 3.5 mph - N/A   Clear
2:00 AM 71 °F - 60 °F 61% 30.13 in 19 mi NE 6.7 mph - -   Clear
2:00 AM 71.6 °F - 60.8 °F 69% 30.12 in - North 10.4 mph - N/A   Clear
2:30 AM 69.8 °F - 60.8 °F 73% 30.12 in - Variable 1.2 mph - N/A   Clear
3:00 AM 70 °F - 61 °F 65% 30.14 in 19 mi NE 4.5 mph - -   Clear
3:00 AM 69.8 °F - 59.0 °F 68% 30.12 in - NE 2.3 mph - N/A   Clear
3:30 AM 68.0 °F - 60.8 °F 78% 30.15 in - NE 6.9 mph - N/A   Clear
4:00 AM 68 °F - 61 °F 71% 30.14 in 19 mi North 4.5 mph - -   Clear
4:00 AM 68.0 °F - 60.8 °F 78% 30.12 in - North 5.8 mph - N/A   Clear
4:30 AM 68.0 °F - 60.8 °F 78% 30.12 in - NNW 8.1 mph - N/A   Clear
5:00 AM 68 °F - 61 °F 73% 30.15 in 19 mi NNW 6.7 mph - -   Scattered Clouds
5:00 AM 68.0 °F - 60.8 °F 78% 30.15 in - North 5.8 mph - N/A   Clear
5:30 AM 69.8 °F - 60.8 °F 73% 30.15 in - NNW 10.4 mph - N/A   Clear
6:00 AM 69 °F - 61 °F 69% 30.15 in 19 mi North 8.9 mph - -   Scattered Clouds
6:00 AM 68.0 °F - 60.8 °F 78% 30.15 in - NNW 9.2 mph - N/A   Clear
6:30 AM 69.8 °F - 62.6 °F 78% 30.15 in - NNE 8.1 mph - N/A   Clear
7:00 AM 72 °F - 62 °F 64% 30.15 in 16 mi North 6.7 mph - -   Scattered Clouds
7:00 AM 71.6 °F - 62.6 °F 73% 30.15 in - NNE 5.8 mph - N/A   Clear
7:30 AM 73.4 °F - 62.6 °F 69% 30.15 in 6.2 mi North 11.5 mph - N/A   Partly Cloudy
8:00 AM 73 °F - 62 °F 59% 30.17 in 16 mi North 11.2 mph - -   Scattered Clouds
8:00 AM 73.4 °F - 62.6 °F 69% 30.18 in 6.2 mi North 10.4 mph - N/A   Partly Cloudy
8:30 AM 75.2 °F - 60.8 °F 61% 30.18 in 6.2 mi North 6.9 mph - N/A   Partly Cloudy
9:00 AM 75 °F - 62 °F 56% 30.18 in 12 mi North 13.4 mph - -   Scattered Clouds
9:00 AM 75.2 °F - 62.6 °F 65% 30.18 in 6.2 mi North 13.8 mph - N/A   Partly Cloudy
9:30 AM 75.2 °F - 62.6 °F 65% 30.18 in 6.2 mi North 15.0 mph - N/A   Scattered Clouds
10:00 AM 78 °F - 64 °F 52% 30.17 in 12 mi NNW 11.2 mph - -   Scattered Clouds
10:00 AM 77.0 °F - 62.6 °F 61% 30.18 in 6.2 mi NNW 11.5 mph - N/A   Scattered Clouds
10:30 AM 78.8 °F - 62.6 °F 57% 30.18 in 6.2 mi North 11.5 mph - N/A   Scattered Clouds
11:00 AM 79 °F - 62 °F 47% 30.17 in 12 mi North 13.4 mph - -   Scattered Clouds
11:00 AM 80.6 °F 82.3 °F 64.4 °F 58% 30.18 in 6.2 mi North 13.8 mph - N/A   Partly Cloudy
11:30 AM 80.6 °F 81.8 °F 62.6 °F 54% 30.18 in 6.2 mi North 16.1 mph - N/A   Partly Cloudy
12:00 PM 81 °F - 63 °F 45% 30.17 in 12 mi NNW 17.9 mph - -   Scattered Clouds
12:00 PM 80.6 °F 81.8 °F 62.6 °F 54% 30.18 in 6.2 mi NNW 18.4 mph - N/A   Partly Cloudy
12:30 PM 80.6 °F 81.8 °F 62.6 °F 54% 30.18 in 6.2 mi NNW 18.4 mph - N/A   Partly Cloudy
1:00 PM 82 °F - 62 °F 41% 30.17 in 12 mi NNW 17.9 mph - -   Partly Cloudy
1:00 PM 80.6 °F 81.8 °F 62.6 °F 54% 30.18 in 6.2 mi North 19.6 mph - N/A   Partly Cloudy
1:30 PM 82.4 °F 83.4 °F 62.6 °F 51% 30.18 in 6.2 mi North 17.3 mph - N/A   Partly Cloudy
2:00 PM 81 °F - 62 °F 42% 30.16 in 12 mi NNW 20.1 mph - -   Partly Cloudy
2:00 PM 82.4 °F 83.4 °F 62.6 °F 51% 30.18 in 6.2 mi NNW 19.6 mph - N/A   Partly Cloudy
2:30 PM 82.4 °F 83.4 °F 62.6 °F 51% 30.15 in 6.2 mi NNW 16.1 mph - N/A   Scattered Clouds
3:00 PM 82 °F - 62 °F 40% 30.16 in 12 mi NNW 17.9 mph - -   Partly Cloudy
3:00 PM 82.4 °F 83.4 °F 62.6 °F 51% 30.18 in 6.2 mi North 16.1 mph - N/A   Scattered Clouds
3:30 PM 82.4 °F 83.4 °F 62.6 °F 51% 30.15 in 6.2 mi NNW 17.3 mph - N/A   Scattered Clouds
4:00 PM 81 °F - 60 °F 39% 30.15 in 12 mi North 20.1 mph - -   Partly Cloudy
4:00 PM 80.6 °F 81.5 °F 60.8 °F 51% 30.15 in 6.2 mi North 20.7 mph - N/A   Scattered Clouds
4:30 PM 80.6 °F 81.5 °F 60.8 °F 51% 30.15 in 6.2 mi NNW 17.3 mph - N/A   Scattered Clouds
5:00 PM 78 °F - 62 °F 48% 30.15 in 12 mi North 13.4 mph - -   Scattered Clouds
5:00 PM 78.8 °F - 60.8 °F 54% 30.15 in 6.2 mi North 12.7 mph - N/A   Partly Cloudy
5:30 PM 78.8 °F - 59.0 °F 51% 30.15 in - North 17.3 mph - N/A   Clear
6:00 PM 79 °F - 61 °F 44% 30.15 in 12 mi North 17.9 mph - -   Scattered Clouds
6:00 PM 78.8 °F - 60.8 °F 54% 30.15 in - North 17.3 mph - N/A   Clear
6:30 PM 78.8 °F - 60.8 °F 54% 30.15 in - North 12.7 mph - N/A   Clear
7:00 PM 77 °F - 60 °F 45% 30.17 in 16 mi North 11.2 mph - -   Scattered Clouds
7:00 PM 77.0 °F - 59.0 °F 54% 30.18 in 6.2 mi North 12.7 mph - N/A   Partly Cloudy
7:30 PM 77.0 °F - 60.8 °F 57% 30.18 in 6.2 mi North 10.4 mph - N/A   Partly Cloudy
8:00 PM 77 °F - 62 °F 49% 30.17 in 12 mi North 11.2 mph - -   Scattered Clouds
8:00 PM 77.0 °F - 60.8 °F 57% 30.18 in 6.2 mi North 11.5 mph - N/A   Partly Cloudy
8:30 PM 75.2 °F - 64.4 °F 69% 30.18 in - North 11.5 mph - N/A   Clear
9:00 PM 75 °F - 63 °F 58% 30.19 in 12 mi North 11.2 mph - -   Scattered Clouds
9:00 PM 75.2 °F - 62.6 °F 65% 30.18 in - North 11.5 mph - N/A   Clear
9:30 PM 73.4 °F - 64.4 °F 73% 30.21 in - NNE 9.2 mph - N/A   Clear
10:00 PM 73 °F - 64 °F 66% 30.22 in 9 mi North 11.2 mph - -   Partly Cloudy
10:00 PM 73.4 °F - 64.4 °F 73% 30.21 in - North 10.4 mph - N/A   Clear
10:30 PM 71.6 °F - 62.6 °F 73% 30.21 in - North 10.4 mph - N/A   Clear
11:00 PM 71 °F - 63 °F 70% 30.22 in 6 mi North 11.2 mph - -   Scattered Clouds
11:00 PM 71.6 °F - 62.6 °F 73% 30.21 in - North 10.4 mph - N/A   Clear
11:30 PM 69.8 °F - 62.6 °F 78% 30.21 in - North 3.5 mph - N/A   Clear